Tracking 32963 objects as of 21-Jan-2026
HD Live streaming from Space Station
objects crossing your sky now

THORAD DELTA 1 DEB

Track THORAD DELTA 1 DEB now!
10-day predictions


NORAD ID: 8184
Int'l Code: 1974-089BA
Perigee: 1,431.4 km
Apogee: 1,531.9 km
Inclination: 101.5 °
Period: 115.4 minutes
Semi major axis: 7852 km
RCS: 0.8469 m2 (medium)
Launch date: November 15, 1974
Source: United States (US)
Launch site: AIR FORCE WESTERN TEST RANGE (AFWTR)

Note: This is SATELLITE DEBRIS
Your satellite tracking list
Your tracking list is empty




NASA's NSSDC Master Catalog

Two Line Element Set (TLE):
1 08184U 74089BA  26020.90366766 -.00000034  00000-0  60624-4 0  9992
2 08184 101.5219 347.5430 0063992  35.8887  32.6225 12.47600255330543
Source of the keplerian elements: AFSPC